CDT,Max TemperatureF,Mean TemperatureF,Min TemperatureF,Max Dew PointF,MeanDew PointF,Min DewpointF,Max Humidity, Mean Humidity, Min Humidity, Max Sea Level PressureIn, Mean Sea Level PressureIn, Min Sea Level PressureIn, Max VisibilityMiles, Mean VisibilityMiles, Min VisibilityMiles, Max Wind SpeedMPH, Mean Wind SpeedMPH, Max Gust SpeedMPH,PrecipitationIn, CloudCover, Events, WindDirDegrees
2013-5-1,57,47,37,48,41,31,97,75,57,30.37,30.20,29.94,10,10,7,22,10,31,0.19,4,Rain,349
2013-5-2,37,34,30,34,30,27,93,85,78,30.42,30.37,30.32,10,8,2,18,13,28,0.19,8,Rain-Snow,9
2013-5-3,37,34,30,37,32,27,100,93,86,30.33,30.18,30.06,10,6,2,15,11,22,0.41,8,Rain,28
2013-5-4,71,54,37,52,43,37,97,74,36,30.12,30.08,30.03,10,10,8,12,8,,0.02,3,Rain,68
2013-5-5,71,58,45,45,42,35,90,62,27,30.12,30.08,30.04,10,10,10,8,5,,0.00,0,,56
2013-5-6,75,60,46,44,40,33,86,50,23,30.11,30.06,30.01,10,10,10,9,3,,0.00,0,,28
2013-5-7,78,64,51,45,38,29,77,41,17,30.08,30.03,29.98,10,10,10,9,4,,0.00,0,,112
2013-5-8,79,64,50,49,40,36,69,41,24,30.02,29.99,29.95,10,10,7,8,2,,0.00,2,,176
2013-5-9,62,53,42,52,49,40,100,87,53,30.04,29.97,29.94,10,6,2,20,8,26,0.40,7,Rain,37
2013-5-10,62,50,39,43,37,27,93,65,26,30.05,30.00,29.91,10,10,10,16,10,23,0.00,4,,18
2013-5-11,50,42,37,43,32,24,89,65,42,30.08,29.95,29.81,10,10,8,28,15,40,0.01,6,Rain-Snow,310
2013-5-12,52,42,32,28,22,17,73,48,29,30.15,30.11,30.08,10,10,10,18,12,28,0.00,1,,332
2013-5-13,62,46,30,34,26,20,73,47,26,30.18,30.06,29.82,10,10,10,13,3,17,0.00,2,Rain,171
2013-5-14,82,62,43,52,44,34,76,48,28,29.78,29.65,29.49,10,10,10,17,7,24,0.00,0,,129
2013-5-15,73,64,55,47,42,37,69,45,28,29.86,29.78,29.57,10,10,10,18,11,21,0.00,0,,297
2013-5-16,79,63,48,50,44,38,83,50,25,30.01,29.91,29.85,10,10,10,12,4,,0.00,2,,79
2013-5-17,55,52,48,50,47,36,96,85,51,30.11,30.08,29.99,10,7,2,17,10,22,0.03,7,Rain,103
2013-5-18,75,62,50,62,55,47,93,78,64,30.09,30.02,29.91,10,9,6,13,9,,0.00,3,,129
2013-5-19,82,70,60,63,60,57,94,72,50,29.91,29.80,29.62,10,8,2,18,9,28,0.00,2,,143
2013-5-20,81,70,60,61,58,54,100,71,45,29.71,29.65,29.58,10,10,10,22,12,31,0.15,4,Rain,188
2013-5-21,72,64,55,63,58,53,100,88,59,29.70,29.61,29.53,10,7,1,14,5,23,0.64,7,Rain,206
2013-5-22,61,56,50,59,56,52,96,92,84,29.89,29.73,29.67,10,6,2,16,6,24,0.63,8,Rain,32
2013-5-23,60,51,42,50,38,27,100,70,31,30.35,30.11,29.89,10,10,10,17,12,26,0.01,4,Rain,24
2013-5-24,63,48,35,42,34,30,89,57,35,30.47,30.38,30.31,10,10,10,7,4,,0.00,0,,109
2013-5-25,64,56,48,42,40,37,80,59,37,30.39,30.33,30.29,10,10,9,13,7,20,0.00,5,,136
2013-5-26,64,52,41,42,38,35,79,56,40,30.33,30.26,30.18,10,10,10,18,8,26,0.00,3,,111
2013-5-27,57,54,50,52,46,37,96,76,57,30.13,30.01,29.92,10,8,4,20,11,24,0.12,8,Rain,110
2013-5-28,57,54,50,56,53,49,100,97,93,29.91,29.79,29.73,10,3,0,13,7,,0.05,8,Fog-Rain,101
2013-5-29,82,68,55,66,59,55,100,95,52,29.88,29.84,29.78,10,4,0,18,3,36,1.08,7,Fog-Rain,191
2013-5-30,77,70,62,68,65,61,96,86,60,29.82,29.73,29.63,10,9,2,22,11,31,0.20,5,Rain,170
2013-5-31,78,68,60,62,59,56,94,77,50,29.71,29.68,29.62,10,10,10,21,13,29,0.00,5,,185